Fowler, IL

1:03 PM CST on February 12, 2016 (GMT -0600)
Quincy Regional-Baldwin

Weather History for KUIN - April, 2012

Change the Weather History Date:

Monday, April 23, 2012

  Actual Average Record
Temperature  
Mean Temperature 48 °F 56 °F  
Max Temperature 62 °F 66 °F 86 °F (1948)
Min Temperature 35 °F 46 °F 25 °F (1956)
Degree Days  
Heating Degree Days 16 10  
Month to date heating degree days 309  
Since 1 July heating degree days 5369  
Cooling Degree Days 0 1  
Month to date cooling degree days 10  
Year to date cooling degree days 12  
Moisture  
Dew Point 36 °F    
Average Humidity 63    
Maximum Humidity 86    
Minimum Humidity 42    
Precipitation  
Precipitation 0.00 in 0.13 in 1.80 in (1975)
Month to date precipitation 2.76  
Year to date precipitation 8.62  
Sea Level Pressure  
Sea Level Pressure 30.06 in    
Wind  
Wind Speed 8 mph (NW)    
Max Wind Speed 18 mph    
Max Gust Speed 26 mph    
Visibility 10 miles    
Events      
T = Trace of Precipitation, MM = Missing Value Source: NWS Daily Summary

Daily Weather History Graph

Daily Weather History Graph

Search for Another Location

Airport or City:

Trip Planner

Search our weather history database for the weather conditions in past years. The results will help you decide how hot, cold, wet, or windy it might be!

Date:

Astronomy

Apr. 23, 2012 Rise Set
Actual Time 6:14 AM CDT 7:51 PM CDT
Civil Twilight 5:46 AM CDT 8:20 PM CDT
Nautical Twilight 5:11 AM CDT 8:55 PM CDT
Astronomical Twilight 4:34 AM CDT 9:32 PM CDT
Moon 7:26 AM CDT (4/23) 10:21 PM CDT (4/23)
Length of Visible Light 14h 34m
Length of Day
13h 37m
Waxing Crescent, 5% of the Moon is Illuminated
Apr 23
Waxing Crescent
Apr 29
First Quarter
May 5
Full
May 12
Last Quarter
May 20
New

Hourly Weather History & Observations

Time (CDT) Temp. Windchill Dew Point Humidity Pressure Visibility Wind Dir Wind Speed Gust Speed Precip Events Conditions
12:54 AM 39.0 °F 35.7 °F 30.0 °F 70% 30.15 in 10.0 mi North 4.6 mph - N/A   Clear
1:54 AM 37.0 °F 33.3 °F 30.0 °F 76% 30.14 in 10.0 mi NW 4.6 mph - N/A   Clear
2:54 AM 36.0 °F 30.3 °F 30.0 °F 79% 30.13 in 10.0 mi NW 6.9 mph - N/A   Clear
3:54 AM 35.1 °F 29.3 °F 30.9 °F 85% 30.14 in 10.0 mi WNW 6.9 mph - N/A   Clear
4:54 AM 36.0 °F 30.3 °F 32.0 °F 86% 30.13 in 10.0 mi WNW 6.9 mph - N/A   Clear
5:54 AM 36.0 °F 31.1 °F 32.0 °F 86% 30.13 in 10.0 mi WNW 5.8 mph - N/A   Clear
6:54 AM 37.0 °F 31.6 °F 32.0 °F 82% 30.13 in 10.0 mi WNW 6.9 mph - N/A   Clear
7:54 AM 42.1 °F 36.6 °F 36.0 °F 79% 30.14 in 10.0 mi NW 9.2 mph - N/A   Clear
8:54 AM 46.9 °F - 37.9 °F 71% 30.14 in 10.0 mi NW 10.4 mph - N/A   Clear
9:54 AM 52.0 °F - 39.9 °F 63% 30.13 in 10.0 mi NW 10.4 mph - N/A   Clear
10:54 AM 55.0 °F - 41.0 °F 59% 30.12 in 10.0 mi WNW 10.4 mph - N/A   Clear
11:54 AM 57.0 °F - 39.0 °F 51% 30.11 in 10.0 mi NW 18.4 mph 23.0 mph N/A   Scattered Clouds
12:54 PM 59.0 °F - 37.9 °F 46% 30.09 in 10.0 mi NW 15.0 mph 20.7 mph N/A   Mostly Cloudy
1:54 PM 57.9 °F - 37.0 °F 46% 30.06 in 10.0 mi NW 13.8 mph 26.5 mph N/A   Mostly Cloudy
2:54 PM 60.1 °F - 37.0 °F 42% 30.04 in 10.0 mi NNW 17.3 mph - N/A   Mostly Cloudy
3:54 PM 62.1 °F - 39.0 °F 43% 30.01 in 10.0 mi NW 16.1 mph 24.2 mph N/A   Overcast
4:54 PM 61.0 °F - 37.9 °F 42% 30.00 in 10.0 mi NW 15.0 mph 26.5 mph N/A   Mostly Cloudy
5:54 PM 59.0 °F - 37.0 °F 44% 29.99 in 10.0 mi NW 16.1 mph 21.9 mph N/A   Scattered Clouds
6:54 PM 59.0 °F - 37.0 °F 44% 29.97 in 10.0 mi NW 10.4 mph - N/A   Partly Cloudy
7:54 PM 52.0 °F - 37.9 °F 59% 29.96 in 10.0 mi WNW 6.9 mph - N/A   Clear
8:54 PM 48.9 °F - 37.9 °F 66% 29.96 in 10.0 mi WNW 5.8 mph - N/A   Clear
9:54 PM 50.0 °F - 37.0 °F 61% 29.96 in 10.0 mi West 4.6 mph - N/A   Clear
10:54 PM 48.9 °F - 37.0 °F 64% 29.95 in 10.0 mi West 4.6 mph - N/A   Clear
11:54 PM 48.0 °F - 37.9 °F 68% 29.93 in 10.0 mi West 5.8 mph - N/A   Clear